Accueil
METAR-TAF:

METAR-TAF

Aéroports :

Aniak, Alaska, États-Unis

latitude: 61-34-53N, longitude: 159-32-34W, altitude: 27 m

Observation

Le bulletin a été fait il y a 47 minutes, à 01:56 UTC
Vent 4 kt de est
Température 1°C
Humidité 44%
Pression 1013 hPa
Visibilité: 16.1 km
Ciel clair

METAR: PANI 080156Z AUTO 09004KT 10SM CLR 01/M10 A2990 RMK AO2 SLP127 T00111100 FZRANO

Heure: 18:43 (02:43 UTC)


TAF: absent

Observations et prévisions météorologiques de plus de 4000 aéroports (messages METAR et TAF).

Les stations disponibles sont représentées par des disques jaunes et rouges sur la carte.

Passer la souris dessus pour voir le nom de la station.

Cliquer dessus pour voir les observations et prévisions météorologiques.

Pour changer de carte: cliquez sur les boutons verts avec une croix noire pour zoomer, sur le bouton vert avec un tiret pour effectuer un zoom arrière, ou sur les flèches vertes pour les cartes adjacentes.


METAR-TAF: